TimeCST,TemperatureF,Dew PointF,Humidity,Sea Level PressureIn,VisibilityMPH,Wind Direction,Wind SpeedMPH,Gust SpeedMPH,PrecipitationIn,Events,Conditions,WindDirDegrees,DateUTC
12:53 AM,28.0,27.0,96,29.44,10.0,ESE,3.5,-,N/A,,Clear,120,2013-11-16 06:53:00
1:53 AM,28.0,28.0,100,29.41,10.0,East,4.6,-,N/A,,Clear,100,2013-11-16 07:53:00
2:53 AM,33.1,33.1,100,29.37,10.0,Calm,Calm,-,N/A,,Clear,0,2013-11-16 08:53:00
3:53 AM,34.0,33.1,96,29.33,9.0,SSE,3.5,-,N/A,,Clear,160,2013-11-16 09:53:00
4:53 AM,35.1,33.1,92,29.34,9.0,Calm,Calm,-,N/A,,Clear,0,2013-11-16 10:53:00
5:53 AM,35.1,34.0,96,29.34,10.0,Calm,Calm,-,N/A,,Mostly Cloudy,0,2013-11-16 11:53:00
6:53 AM,37.0,35.1,93,29.34,10.0,West,9.2,-,N/A,,Mostly Cloudy,260,2013-11-16 12:53:00
7:53 AM,42.1,32.0,67,29.35,10.0,WNW,9.2,-,N/A,,Overcast,300,2013-11-16 13:53:00
8:53 AM,44.1,26.1,49,29.37,10.0,WNW,17.3,-,N/A,,Clear,300,2013-11-16 14:53:00
9:53 AM,48.0,25.0,41,29.37,10.0,WNW,16.1,25.3,N/A,,Clear,300,2013-11-16 15:53:00
10:53 AM,53.1,21.0,29,29.39,10.0,WNW,19.6,26.5,N/A,,Clear,300,2013-11-16 16:53:00
11:53 AM,55.9,19.0,24,29.36,10.0,West,19.6,26.5,N/A,,Clear,280,2013-11-16 17:53:00
12:53 PM,57.9,16.0,19,29.37,10.0,WNW,20.7,28.8,N/A,,Clear,290,2013-11-16 18:53:00
1:53 PM,59.0,15.1,18,29.34,10.0,WNW,20.7,29.9,N/A,,Clear,300,2013-11-16 19:53:00
2:53 PM,59.0,17.1,20,29.34,10.0,NW,13.8,-,N/A,,Clear,310,2013-11-16 20:53:00
3:53 PM,57.9,21.9,25,29.34,10.0,West,6.9,-,N/A,,Clear,270,2013-11-16 21:53:00
4:53 PM,50.0,25.0,38,29.37,10.0,WSW,5.8,-,N/A,,Clear,240,2013-11-16 22:53:00
5:53 PM,45.0,27.0,49,29.40,10.0,Calm,Calm,-,N/A,,Clear,0,2013-11-16 23:53:00
6:53 PM,37.0,26.1,65,29.43,10.0,Calm,Calm,-,N/A,,Clear,0,2013-11-17 00:53:00
7:53 PM,37.0,28.0,70,29.40,10.0,SE,5.8,-,N/A,,Clear,130,2013-11-17 01:53:00
8:53 PM,36.0,28.9,76,29.42,10.0,North,3.5,-,N/A,,Clear,360,2013-11-17 02:53:00
9:53 PM,39.9,28.9,65,29.40,10.0,North,5.8,-,N/A,,Partly Cloudy,360,2013-11-17 03:53:00
10:53 PM,45.0,28.0,52,29.39,10.0,NNW,6.9,-,N/A,,Mostly Cloudy,330,2013-11-17 04:53:00
11:53 PM,48.0,28.9,48,29.39,10.0,WNW,12.7,-,N/A,,Overcast,300,2013-11-17 05:53:00